STARLINK-30849, 58245

Orbit data source: Space-Track

STARLINK-30849, 58245 is a payload satellite owned by SpaceX/Seattle (US) in LEO that was launched on Wed, 08 Nov 2023 UTC via an FALCON 9 launch vehicle from the Air Force Eastern Test Range (AFETR). Payload-class satellites include a variety of spacecraft equipped with specific instruments for various scientific and technological missions. These include communications satellites like Starlink; space stations such as the ISS; scientific satellites like the Hubble; Earth observation satellites from companies like Planet Labs, Umbra, and HawkEye 360; GPS; miniature CubeSats for education and research; and military/defense satellites.

Loading next visibility...
Identifier
58245, 2023-171R
Orbit
LEO
Country
Flag of USUS
Related business
Manufacturer
SpaceX/Seattle
Mission
Operational Commercial Communications
Bus & Motor
STARLINK V2M, Unknown motor
Mass
730 kg wet, ~700 kg dry
Launch date (UTC)
2023-11-08 (3 years ago)
Launch vehicle
FALCON 9
Launch site
Air Force Eastern Test Range (AFETR)
Object type
Payload
Rocket body
Debris
Shape & HBR
Box + 2 Pan, 17.7 m
Radar Cross Section
33.884 m², Large (>1 m²)

Expand to show TLE details & history
Last TLE update: 2 days ago

TLE from 2 days ago
0 STARLINK-30849
1 58245U 23171R   26171.14485919 -.00001590  00000-0 -48279-4 0  9997
2 58245  43.0032  66.6204 0001444 267.1323  92.9364 15.27564513145405
Epoch: 2026-06-20T03:28Z
TLE epoch observation values (Epoch: 2026-06-20T03:28:35.834Z)
Latitude
0.00004°
Longitude
106.10744°
Altitude
482.922 km
Speed
7.626 km/s
True Right ascension
04h 26m 28s
True Declination
0° 00' 00"
Sunlit
Object was in daylight at epoch
Visualization orbit readout
Latitude
Unknown
Longitude
Unknown
Altitude
Unknown
Speed
Unknown
Apparent Right ascension
Unknown
Apparent Declination
Unknown
Sunlit
N/A
Visualization observer readout
Local Sidereal Time
21:29:06
Azimuth
Unknown
Elevation
Unknown
Doppler factor
Unknown
Orbital elements
Apogee altitude
486.031 km
Perigee altitude
484.049 km
Semi-major axis
6,863.177 km
Eccentricity
0.00014
Inclination
43.0032°
RAAN
66.6204°
Arg. of periapsis
267.1323°
True anomaly
92.95293°
Mean anomaly
92.9364°
Eccentric anomaly
92.94466°
Mean motion
3.81729 °/min
Orbital period
94.31 mins
BSTAR
-0.000048279
Loading maneuver chart data...
Computing Atmospheric mass density...
Loading historical data...
Loading historical data...
Loading historical data...
Loading historical data...
Loading historical data...
Loading historical data...
Loading historical data...

Documentation

Showing up to 5 results
|